Mukilteo, WA

5:11 PM PST on February 22, 2017 (GMT -0800)
Snohomish County

Weather History for KPAE - October, 2012

Change the Weather History Date:

Wednesday, October 31, 2012

  Actual Average Record
Temperature  
Mean Temperature 57 °F -  
Max Temperature 60 °F 54 °F 73 °F (1958)
Min Temperature 55 °F 41 °F 27 °F (1951)
Degree Days  
Heating Degree Days 8    
Growing Degree Days 7 (Base 50)    
Moisture  
Dew Point 53 °F    
Average Humidity 87    
Maximum Humidity 94    
Minimum Humidity 74    
Precipitation  
Precipitation 1.15 in - - ()
Sea Level Pressure  
Sea Level Pressure 29.71 in    
Wind  
Wind Speed 8 mph (SSE)    
Max Wind Speed 16 mph    
Max Gust Speed 23 mph    
Visibility 7 miles    
Events Rain    
Averages and records for this station are not official NWS values.
T = Trace of Precipitation, MM = Missing Value Source: NWS Daily Summary

Daily Weather History Graph

Daily Weather History Graph

Search for Another Location

Airport or City:

Trip Planner

Search our weather history database for the weather conditions in past years. The results will help you decide how hot, cold, wet, or windy it might be!

Date:

Astronomy

Oct. 31, 2012 Rise Set
Actual Time 7:53 AM PDT 5:51 PM PDT
Civil Twilight 7:20 AM PDT 6:23 PM PDT
Nautical Twilight 6:44 AM PDT 7:00 PM PDT
Astronomical Twilight 6:08 AM PDT 7:36 PM PDT
Moon 6:57 PM PDT (10/31) 9:47 AM PDT (10/31)
Length of Visible Light 11h 03m
Length of Day
9h 58m
Waning Gibbous, 97% of the Moon is Illuminated
Oct 31
Waning Gibbous
Nov 6
Last Quarter
Nov 13
New
Nov 20
First Quarter
Nov 28
Full

Hourly Weather History & Observations

Time (PDT) Temp. Dew Point Humidity Pressure Visibility Wind Dir Wind Speed Gust Speed Precip Events Conditions
12:15 AM 57.2 °F 53.6 °F 88% 29.77 in 3.0 mi South 6.9 mph - 0.07 in Rain Heavy Rain
12:22 AM 57.2 °F 53.6 °F 88% 29.77 in 2.0 mi SSE 10.4 mph - 0.12 in Rain Heavy Rain
12:34 AM 57.2 °F 53.6 °F 88% 29.77 in 3.0 mi SSE 11.5 mph - 0.18 in Rain Rain
12:53 AM 57.0 °F 54.0 °F 89% 29.76 in 3.0 mi SSE 11.5 mph 17.3 mph 0.23 in Rain Rain
12:58 AM 57.2 °F 53.6 °F 88% 29.77 in 2.5 mi SSE 9.2 mph 17.3 mph 0.03 in Rain Rain
1:16 AM 57.2 °F 53.6 °F 88% 29.76 in 3.0 mi SSE 9.2 mph - 0.08 in Rain Light Rain
1:49 AM 57.2 °F 53.6 °F 88% 29.75 in 8.0 mi SSE 9.2 mph - 0.12 in Rain Light Rain
1:53 AM 57.0 °F 54.0 °F 89% 29.75 in 8.0 mi SSE 11.5 mph - 0.13 in Rain Light Rain
2:21 AM 57.2 °F 53.6 °F 88% 29.75 in 8.0 mi SSE 10.4 mph - 0.02 in Rain Light Rain
2:53 AM 57.0 °F 54.0 °F 89% 29.74 in 10.0 mi SSE 11.5 mph - 0.02 in Rain Light Rain
3:02 AM 57.2 °F 53.6 °F 88% 29.74 in 10.0 mi SSE 11.5 mph - 0.00 in Rain Light Rain
3:11 AM 57.2 °F 53.6 °F 88% 29.74 in 10.0 mi SSE 9.2 mph - 0.00 in Rain Light Rain
3:43 AM 57.2 °F 53.6 °F 88% 29.72 in 4.0 mi SSE 9.2 mph - 0.03 in Rain Light Rain
3:53 AM 57.0 °F 54.0 °F 89% 29.73 in 3.0 mi SSE 9.2 mph - 0.05 in Rain Light Rain
4:40 AM 57.2 °F 53.6 °F 88% 29.72 in 2.5 mi SSE 6.9 mph - 0.10 in Rain Rain
4:53 AM 55.9 °F 54.0 °F 93% 29.72 in 4.0 mi Variable 4.6 mph - 0.12 in Rain Light Rain
5:07 AM 55.4 °F 53.6 °F 94% 29.71 in 3.0 mi Variable 3.5 mph - 0.03 in Rain Light Rain
5:25 AM 55.4 °F 53.6 °F 94% 29.71 in 3.0 mi SSE 4.6 mph - 0.07 in Rain Rain
5:53 AM 57.0 °F 54.0 °F 89% 29.71 in 3.0 mi Variable 5.8 mph - 0.16 in Rain Heavy Rain
6:01 AM 57.2 °F 53.6 °F 88% 29.70 in 2.5 mi SE 4.6 mph - 0.04 in Rain Rain
6:08 AM 57.2 °F 53.6 °F 88% 29.69 in 3.0 mi ESE 4.6 mph - 0.07 in Rain Rain
6:53 AM 55.9 °F 54.0 °F 93% 29.68 in 7.0 mi ESE 6.9 mph - 0.18 in Rain Light Rain
7:53 AM 55.0 °F 53.1 °F 93% 29.67 in 9.0 mi Variable 3.5 mph - 0.01 in Rain Light Rain
8:53 AM 55.0 °F 53.1 °F 93% 29.66 in 10.0 mi ESE 9.2 mph - 0.03 in Rain Light Rain
9:53 AM 55.9 °F 53.1 °F 90% 29.67 in 7.0 mi Calm Calm - 0.01 in Rain Light Rain
10:53 AM 57.0 °F 53.1 °F 87% 29.65 in 7.0 mi SE 4.6 mph - 0.06 in Rain Light Rain
11:53 AM 57.2 °F 53.6 °F 88% 29.65 in 10.0 mi ESE 6.9 mph - N/A Rain Light Rain
12:53 PM 57.9 °F 54.0 °F 87% 29.63 in 10.0 mi Variable 3.5 mph - 0.02 in Rain Light Rain
1:53 PM 59.0 °F 54.0 °F 83% 29.63 in 8.0 mi South 8.1 mph - 0.03 in Rain Light Rain
2:53 PM 57.9 °F 54.0 °F 87% 29.64 in 10.0 mi SSE 11.5 mph - 0.01 in Rain Light Rain
3:21 PM 57.2 °F 53.6 °F 88% 29.65 in 5.0 mi South 11.5 mph 19.6 mph 0.04 in Rain Light Rain
3:53 PM 57.9 °F 54.0 °F 87% 29.66 in 8.0 mi South 15.0 mph 23.0 mph 0.06 in Rain Light Rain
4:03 PM 57.2 °F 53.6 °F 88% 29.66 in 10.0 mi South 16.1 mph 23.0 mph 0.00 in Rain Light Rain
4:53 PM 57.9 °F 54.0 °F 87% 29.68 in 10.0 mi South 13.8 mph - 0.02 in   Overcast
5:53 PM 57.0 °F 53.1 °F 87% 29.69 in 10.0 mi South 10.4 mph - 0.00 in   Overcast
6:53 PM 55.9 °F 51.1 °F 84% 29.71 in 10.0 mi SSE 10.4 mph - 0.00 in   Overcast
7:53 PM 55.9 °F 50.0 °F 80% 29.70 in 10.0 mi SSE 9.2 mph - N/A   Clear
8:53 PM 55.9 °F 50.0 °F 80% 29.71 in 10.0 mi SSE 3.5 mph - N/A   Overcast
9:53 PM 55.9 °F 48.9 °F 77% 29.73 in 10.0 mi Calm Calm - 0.00 in   Overcast
10:53 PM 57.0 °F 48.9 °F 74% 29.73 in 10.0 mi SSE 5.8 mph - N/A   Overcast
11:53 PM 55.9 °F 48.0 °F 75% 29.73 in 10.0 mi SSE 8.1 mph - 0.01 in   Overcast